| time (UTC) | temp F | wind direction | speed MPH | gust MPH | rain 1hr in | rain 24hr in | rain mn in | humidity % | barometer mb |
| 20260903115943 | 64 | 154 | 0.0 | 0.0 | 0.00 | 0.00 | 0.00 | 99 | 1016.8 |
| 20260903115443 | 64 | 236 | 0.0 | 1.0 | 0.00 | 0.00 | 0.00 | 99 | 1016.7 |
| 20260903114938 | 64 | 220 | 0.0 | 0.0 | 0.00 | 0.00 | 0.00 | 99 | 1016.8 |
| 20260903114434 | 64 | 226 | 0.0 | 0.0 | 0.00 | 0.00 | 0.00 | 99 | 1016.8 |
| 20260903113929 | 64 | 161 | 0.0 | 2.0 | 0.00 | 0.00 | 0.00 | 99 | 1016.9 |
| 20260903113425 | 64 | 185 | 0.0 | 1.0 | 0.00 | 0.00 | 0.00 | 99 | 1016.6 |
| 20260903112920 | 64 | 105 | 0.0 | 0.0 | 0.00 | 0.00 | 0.00 | 99 | 1016.9 |
| 20260903112416 | 64 | 180 | 0.0 | 1.0 | 0.00 | 0.00 | 0.00 | 99 | 1016.7 |
| 20260903111915 | 64 | 325 | 1.0 | 4.0 | 0.00 | 0.00 | 0.00 | 99 | 1016.7 |
| 20260903111414 | 64 | 258 | 2.0 | 3.0 | 0.00 | 0.00 | 0.00 | 99 | 1016.5 |
| 20260903110911 | 64 | 108 | 0.0 | 1.0 | 0.00 | 0.00 | 0.00 | 99 | 1016.4 |
| 20260903110407 | 64 | 144 | 2.0 | 2.0 | 0.00 | 0.00 | 0.00 | 99 | 1016.5 |
| 20260903105902 | 64 | 177 | 0.0 | 2.0 | 0.00 | 0.84 | 0.84 | 99 | 1016.7 |
| 20260903105357 | 64 | 207 | 0.0 | 0.0 | 0.00 | 0.84 | 0.84 | 99 | 1016.8 |
| 20260903104856 | 64 | 72 | 1.0 | 3.0 | 0.00 | 0.84 | 0.84 | 99 | 1016.9 |
| 20260903104351 | 64 | 322 | 0.0 | 1.0 | 0.00 | 0.84 | 0.84 | 99 | 1016.8 |
| 20260903103848 | 64 | 47 | 2.0 | 3.0 | 0.00 | 0.84 | 0.84 | 99 | 1016.8 |
| 20260903103344 | 64 | 103 | 0.0 | 1.0 | 0.00 | 0.84 | 0.84 | 99 | 1016.9 |
| 20260903102838 | 64 | 235 | 0.0 | 0.0 | 0.00 | 0.84 | 0.84 | 99 | 1017.0 |
| 20260903102333 | 64 | 134 | 1.0 | 2.0 | 0.00 | 0.84 | 0.84 | 99 | 1017.1 |
| 20260903101832 | 64 | 160 | 2.0 | 2.0 | 0.00 | 0.84 | 0.84 | 99 | 1017.1 |
| 20260903101322 | 64 | 59 | 1.0 | 1.0 | 0.00 | 0.84 | 0.84 | 99 | 1017.2 |
| 20260903100817 | 64 | 108 | 1.0 | 3.0 | 0.00 | 0.84 | 0.84 | 99 | 1017.2 |
| 20260903100311 | 64 | 246 | 0.0 | 2.0 | 0.00 | 0.84 | 0.84 | 99 | 1017.2 |
| 20260903095809 | 64 | 60 | 2.0 | 3.0 | 0.00 | 0.84 | 0.84 | 99 | 1017.3 |
| 20260903095257 | 64 | 37 | 0.0 | 2.0 | 0.00 | 0.84 | 0.84 | 99 | 1017.2 |
| 20260903094753 | 64 | 154 | 0.0 | 1.0 | 0.00 | 0.84 | 0.84 | 99 | 1016.9 |
| 20260903094248 | 64 | 81 | 0.0 | 3.0 | 0.00 | 0.84 | 0.84 | 99 | 1016.9 |
| 20260903093743 | 63 | 289 | 2.0 | 3.0 | 0.00 | 0.84 | 0.84 | 99 | 1016.6 |
| 20260903093238 | 63 | 175 | 2.0 | 4.0 | 0.00 | 0.84 | 0.84 | 99 | 1017.1 |
| 20260903092737 | 63 | 201 | 2.0 | 4.0 | 0.00 | 0.84 | 0.84 | 99 | 1017.2 |
| 20260903092232 | 63 | 118 | 2.0 | 3.0 | 0.00 | 0.84 | 0.84 | 99 | 1017.1 |
| 20260903091731 | 63 | 220 | 0.0 | 3.0 | 0.00 | 0.84 | 0.84 | 99 | 1017.0 |
| 20260903091227 | 63 | 169 | 1.0 | 3.0 | 0.00 | 0.84 | 0.84 | 99 | 1017.0 |
| 20260903090722 | 63 | 198 | 0.0 | 3.0 | 0.00 | 0.84 | 0.84 | 99 | 1017.0 |
| 20260903090220 | 63 | 111 | 1.0 | 3.0 | 0.00 | 0.84 | 0.84 | 99 | 1016.9 |
| 20260903085719 | 63 | 22 | 2.0 | 2.0 | 0.00 | 0.84 | 0.84 | 99 | 1016.5 |
| 20260903085214 | 63 | 310 | 1.0 | 4.0 | 0.00 | 0.84 | 0.84 | 99 | 1016.8 |
| 20260903084712 | 63 | 287 | 0.0 | 8.0 | 0.00 | 0.84 | 0.84 | 99 | 1016.9 |
| 20260903084207 | 63 | 135 | 0.0 | 2.0 | 0.00 | 0.84 | 0.84 | 99 | 1017.0 |
| 20260903083703 | 63 | 231 | 0.0 | 1.0 | 0.00 | 0.84 | 0.84 | 99 | 1017.1 |
| 20260903083203 | 63 | 222 | 0.0 | 1.0 | 0.00 | 0.84 | 0.84 | 99 | 1016.9 |
| 20260903082657 | 62 | 95 | 0.0 | 1.0 | 0.00 | 0.84 | 0.84 | 99 | 1017.0 |
| 20260903082154 | 62 | 250 | 0.0 | 2.0 | 0.00 | 0.84 | 0.84 | 99 | 1016.9 |
| 20260903081648 | 62 | 182 | 1.0 | 1.0 | 0.00 | 0.84 | 0.84 | 99 | 1017.1 |
| 20260903081143 | 62 | 205 | 0.0 | 0.0 | 0.00 | 0.84 | 0.84 | 99 | 1017.1 |
| 20260903080640 | 62 | 212 | 0.0 | 0.0 | 0.00 | 0.84 | 0.84 | 99 | 1017.2 |
| 20260903080138 | 62 | 225 | 0.0 | 0.0 | 0.00 | 0.84 | 0.84 | 99 | 1017.2 |
| 20260903075636 | 62 | 224 | 0.0 | 0.0 | 0.00 | 0.84 | 0.84 | 99 | 1017.0 |
| 20260903075137 | 62 | 225 | 0.0 | 0.0 | 0.00 | 0.84 | 0.84 | 99 | 1017.2 |
| 20260903074636 | 62 | 226 | 0.0 | 0.0 | 0.00 | 0.84 | 0.84 | 99 | 1017.1 |
| 20260903074131 | 62 | 228 | 0.0 | 0.0 | 0.00 | 0.84 | 0.84 | 99 | 1016.9 |
| 20260903073626 | 62 | 222 | 0.0 | 0.0 | 0.00 | 0.84 | 0.84 | 99 | 1016.9 |
| 20260903073122 | 62 | 215 | 0.0 | 0.0 | 0.05 | 0.84 | 0.84 | 99 | 1017.1 |
| 20260903072617 | 62 | 181 | 0.0 | 1.0 | 0.05 | 0.84 | 0.84 | 99 | 1017.2 |
| 20260903072114 | 62 | 207 | 0.0 | 0.0 | 0.00 | 0.83 | 0.83 | 99 | 1017.3 |
| 20260903071610 | 62 | 182 | 0.0 | 1.0 | 0.00 | 0.83 | 0.83 | 99 | 1017.0 |
| 20260903071110 | 62 | 216 | 0.0 | 1.0 | 0.00 | 0.83 | 0.83 | 99 | 1016.9 |
| 20260903070605 | 62 | 205 | 0.0 | 0.0 | 0.00 | 0.83 | 0.83 | 99 | 1016.7 |
| 20260903065600 | 63 | 131 | 0.0 | 1.0 | 0.00 | 0.83 | 0.83 | 99 | 1017.0 |
| 20260903065054 | 63 | 134 | 0.0 | 0.0 | 0.00 | 0.83 | 0.83 | 99 | 1017.1 |
| 20260903064549 | 63 | 236 | 0.0 | 1.0 | 0.00 | 0.83 | 0.83 | 99 | 1017.2 |
| 20260903064044 | 63 | 229 | 0.0 | 2.0 | 0.00 | 0.83 | 0.83 | 99 | 1017.4 |
| 20260903063539 | 63 | 261 | 0.0 | 0.0 | 0.00 | 0.83 | 0.83 | 99 | 1017.5 |
| 20260903063035 | 63 | 252 | 0.0 | 1.0 | 0.00 | 0.83 | 0.83 | 99 | 1017.5 |
| 20260903062530 | 63 | 55 | 2.0 | 2.0 | 0.00 | 0.83 | 0.83 | 99 | 1017.8 |
| 20260903062026 | 63 | 47 | 2.0 | 2.0 | 0.00 | 0.83 | 0.83 | 99 | 1017.6 |
| 20260903061520 | 63 | 139 | 0.0 | 0.0 | 0.00 | 0.83 | 0.83 | 99 | 1017.6 |
| 20260903061020 | 63 | 204 | 0.0 | 2.0 | 0.00 | 0.83 | 0.83 | 99 | 1017.8 |
| 20260903060520 | 63 | 171 | 0.0 | 3.0 | 0.00 | 0.83 | 0.83 | 99 | 1017.9 |
| 20260903060015 | 63 | 179 | 0.0 | 0.0 | 0.00 | 0.83 | 0.83 | 99 | 1018.0 |
| 20260903055512 | 63 | 165 | 0.0 | 1.0 | 0.00 | 0.83 | 0.83 | 99 | 1017.9 |
| 20260903055011 | 63 | 179 | 0.0 | 1.0 | 0.00 | 0.83 | 0.83 | 99 | 1017.9 |
| 20260903054507 | 63 | 235 | 1.0 | 1.0 | 0.00 | 0.83 | 0.83 | 99 | 1017.5 |
| 20260903054003 | 63 | 209 | 0.0 | 1.0 | 0.00 | 0.83 | 0.83 | 99 | 1017.5 |
| 20260903053502 | 63 | 187 | 1.0 | 1.0 | 0.07 | 0.83 | 0.83 | 99 | 1017.9 |
| 20260903052959 | 63 | 169 | 0.0 | 1.0 | 0.07 | 0.83 | 0.83 | 99 | 1018.0 |
| 20260903052454 | 63 | 124 | 1.0 | 2.0 | 0.05 | 0.82 | 0.82 | 99 | 1018.0 |
| 20260903051950 | 63 | 52 | 1.0 | 2.0 | 0.12 | 0.82 | 0.82 | 99 | 1017.6 |
| 20260903051445 | 63 | 171 | 0.0 | 0.0 | 0.12 | 0.81 | 0.81 | 99 | 1017.8 |
| 20260903050940 | 63 | 160 | 0.0 | 1.0 | 0.12 | 0.80 | 0.80 | 99 | 1018.3 |
| 20260903050439 | 63 | 210 | 1.0 | 2.0 | 0.14 | 0.79 | 0.79 | 99 | 1018.8 |
| 20260903045934 | 63 | 141 | 1.0 | 2.0 | 0.12 | 0.78 | 0.78 | 99 | 1019.0 |
| 20260903045430 | 63 | 37 | 0.0 | 1.0 | 0.17 | 0.77 | 0.77 | 99 | 1019.2 |
| 20260903044927 | 64 | 16 | 2.0 | 3.0 | 0.17 | 0.75 | 0.75 | 99 | 1019.5 |
| 20260903044426 | 64 | 149 | 2.0 | 2.0 | 0.31 | 0.74 | 0.74 | 99 | 1020.0 |
| 20260903043923 | 64 | 16 | 0.0 | 2.0 | 0.17 | 0.71 | 0.71 | 99 | 1020.2 |
| 20260903043418 | 63 | 293 | 0.0 | 1.0 | 0.12 | 0.69 | 0.69 | 99 | 1020.5 |
| 20260903042916 | 63 | 178 | 0.0 | 0.0 | 0.07 | 0.68 | 0.68 | 99 | 1020.2 |
| 20260903042412 | 63 | 214 | 0.0 | 1.0 | 0.07 | 0.67 | 0.67 | 99 | 1020.0 |
| 20260903041908 | 63 | 212 | 0.0 | 0.0 | 0.05 | 0.66 | 0.66 | 99 | 1019.5 |
| 20260903041404 | 63 | 179 | 0.0 | 1.0 | 0.12 | 0.66 | 0.66 | 99 | 1019.1 |
| 20260903040900 | 63 | 93 | 1.0 | 2.0 | 0.12 | 0.65 | 0.65 | 99 | 1018.9 |
| 20260903040359 | 63 | 199 | 0.0 | 3.0 | 0.17 | 0.64 | 0.64 | 99 | 1018.8 |
| 20260903035855 | 63 | 234 | 0.0 | 1.0 | 0.17 | 0.62 | 0.62 | 99 | 1018.8 |
| 20260903035350 | 63 | 194 | 0.0 | 2.0 | 0.24 | 0.61 | 0.61 | 99 | 1018.8 |
| 20260903034845 | 63 | 154 | 1.0 | 1.0 | 0.31 | 0.59 | 0.59 | 99 | 1019.2 |
| 20260903034340 | 63 | 183 | 0.0 | 1.0 | 0.26 | 0.57 | 0.57 | 99 | 1019.1 |
| 20260903033835 | 63 | 205 | 0.0 | 3.0 | 0.19 | 0.54 | 0.54 | 99 | 1019.4 |
| 20260903033330 | 63 | 153 | 2.0 | 2.0 | 0.24 | 0.53 | 0.53 | 99 | 1019.4 |
| 20260903032830 | 63 | 202 | 0.0 | 0.0 | 0.17 | 0.51 | 0.51 | 99 | 1019.8 |
| 20260903032326 | 63 | 180 | 0.0 | 1.0 | 0.17 | 0.49 | 0.49 | 99 | 1020.0 |
| 20260903031821 | 63 | 209 | 0.0 | 1.0 | 0.24 | 0.48 | 0.48 | 99 | 1020.2 |
| 20260903031320 | 63 | 210 | 0.0 | 0.0 | 0.24 | 0.46 | 0.46 | 99 | 1020.1 |
| 20260903030811 | 63 | 203 | 0.0 | 0.0 | 0.31 | 0.44 | 0.44 | 99 | 1020.1 |
| 20260903030306 | 63 | 206 | 0.0 | 0.0 | 0.31 | 0.41 | 0.41 | 99 | 1020.8 |
| 20260903025802 | 63 | 105 | 0.0 | 1.0 | 0.59 | 0.38 | 0.38 | 99 | 1021.6 |
| 20260903025257 | 63 | 169 | 2.0 | 4.0 | 0.66 | 0.34 | 0.34 | 99 | 1022.2 |
| 20260903024752 | 63 | 240 | 1.0 | 3.0 | 0.40 | 0.27 | 0.27 | 99 | 1022.0 |
| 20260903024252 | 63 | 253 | 0.0 | 1.0 | 0.12 | 0.22 | 0.22 | 99 | 1022.1 |
| 20260903023747 | 63 | 232 | 0.0 | 1.0 | 0.07 | 0.20 | 0.20 | 99 | 1019.8 |
| 20260903023242 | 63 | 217 | 0.0 | 4.0 | 0.50 | 0.20 | 0.20 | 99 | 1019.4 |
| 20260903022737 | 63 | 130 | 2.0 | 2.0 | 0.50 | 0.18 | 0.18 | 99 | 1020.0 |
| 20260903022236 | 63 | 223 | 0.0 | 0.0 | 0.24 | 0.12 | 0.12 | 99 | 1020.4 |
| 20260903021730 | 63 | 197 | 1.0 | 2.0 | 0.17 | 0.10 | 0.10 | 99 | 1019.9 |
| 20260903021226 | 62 | 244 | 0.0 | 2.0 | 0.12 | 0.08 | 0.08 | 99 | 1019.4 |
| 20260903020725 | 62 | 183 | 0.0 | 3.0 | 0.07 | 0.07 | 0.07 | 99 | 1019.9 |
| 20260903020220 | 62 | 163 | 0.0 | 1.0 | 0.00 | 0.06 | 0.06 | 99 | 1019.9 |
| 20260903015716 | 62 | 232 | 1.0 | 3.0 | 0.00 | 0.06 | 0.06 | 99 | 1019.8 |
| 20260903015211 | 62 | 221 | 0.0 | 1.0 | 0.00 | 0.06 | 0.06 | 99 | 1020.0 |
| 20260903014707 | 62 | 31 | 0.0 | 0.0 | 0.00 | 0.06 | 0.06 | 99 | 1020.3 |
| 20260903014205 | 62 | 175 | 0.0 | 2.0 | 0.00 | 0.06 | 0.06 | 99 | 1020.1 |
| 20260903013700 | 62 | 208 | 2.0 | 3.0 | 0.00 | 0.06 | 0.06 | 99 | 1020.2 |
| 20260903013200 | 62 | 196 | 1.0 | 2.0 | 0.00 | 0.06 | 0.06 | 99 | 1020.4 |
| 20260903012658 | 62 | 34 | 1.0 | 3.0 | 0.00 | 0.06 | 0.06 | 99 | 1020.3 |
| 20260903012158 | 62 | 93 | 1.0 | 2.0 | 0.00 | 0.06 | 0.06 | 99 | 1020.3 |
| 20260903011652 | 62 | 67 | 1.0 | 3.0 | 0.00 | 0.06 | 0.06 | 99 | 1020.0 |
| 20260903011152 | 62 | 250 | 0.0 | 1.0 | 0.00 | 0.06 | 0.06 | 99 | 1020.1 |
| 20260903010648 | 62 | 231 | 0.0 | 2.0 | 0.00 | 0.06 | 0.06 | 99 | 1020.0 |
| 20260903010147 | 62 | 63 | 2.0 | 4.0 | 0.00 | 0.06 | 0.06 | 99 | 1019.8 |
| 20260903005646 | 62 | 227 | 0.0 | 1.0 | 0.00 | 0.06 | 0.06 | 99 | 1019.5 |
| 20260903005142 | 62 | 222 | 0.0 | 0.0 | 0.00 | 0.06 | 0.06 | 99 | 1019.5 |
| 20260903004637 | 62 | 306 | 0.0 | 1.0 | 0.00 | 0.06 | 0.06 | 99 | 1019.3 |
| 20260903004132 | 62 | 172 | 1.0 | 3.0 | 0.00 | 0.06 | 0.06 | 99 | 1019.1 |
| 20260903003627 | 62 | 69 | 2.0 | 4.0 | 0.00 | 0.06 | 0.06 | 99 | 1019.3 |
| 20260903003122 | 62 | 222 | 2.0 | 4.0 | 0.00 | 0.06 | 0.06 | 99 | 1019.4 |
| 20260903002618 | 62 | 239 | 0.0 | 6.0 | 0.00 | 0.06 | 0.06 | 99 | 1019.7 |
| 20260903002112 | 63 | 164 | 2.0 | 4.0 | 0.00 | 0.06 | 0.06 | 99 | 1020.0 |
| 20260903001607 | 63 | 151 | 2.0 | 3.0 | 0.00 | 0.06 | 0.06 | 99 | 1020.1 |
| 20260903001106 | 63 | 196 | 0.0 | 4.0 | 0.00 | 0.06 | 0.06 | 99 | 1020.2 |
| 20260903000602 | 63 | 251 | 1.0 | 2.0 | 0.05 | 0.06 | 0.06 | 99 | 1020.1 |
| 20260903000055 | 63 | 252 | 1.0 | 2.0 | 0.00 | 0.05 | 0.05 | 99 | 1020.2 |
| 20260902235549 | 63 | 190 | 0.0 | 3.0 | 0.00 | 0.05 | 0.05 | 99 | 1020.1 |
| 20260902235044 | 63 | 224 | 0.0 | 3.0 | 0.00 | 0.05 | 0.05 | 99 | 1020.0 |
| 20260902234539 | 63 | 221 | 0.0 | 0.0 | 0.00 | 0.05 | 0.05 | 99 | 1019.9 |
| 20260902234037 | 63 | 54 | 2.0 | 3.0 | 0.00 | 0.05 | 0.05 | 99 | 1019.9 |
| 20260902233532 | 63 | 234 | 0.0 | 1.0 | 0.00 | 0.05 | 0.05 | 99 | 1019.8 |
| 20260902233027 | 63 | 130 | 0.0 | 2.0 | 0.00 | 0.05 | 0.05 | 99 | 1019.7 |
| 20260902232526 | 63 | 199 | 0.0 | 1.0 | 0.00 | 0.05 | 0.05 | 99 | 1019.8 |
| 20260902232020 | 63 | 215 | 1.0 | 2.0 | 0.00 | 0.05 | 0.05 | 99 | 1019.5 |
| 20260902231515 | 63 | 29 | 3.0 | 4.0 | 0.00 | 0.05 | 0.05 | 99 | 1019.5 |
| 20260902231009 | 63 | 221 | 0.0 | 0.0 | 0.07 | 0.05 | 0.05 | 99 | 1019.5 |
| 20260902230509 | 63 | 217 | 0.0 | 3.0 | 0.00 | 0.04 | 0.04 | 99 | 1019.5 |
| 20260902230003 | 63 | 216 | 0.0 | 3.0 | 0.00 | 0.04 | 0.04 | 99 | 1019.5 |
| 20260902225458 | 63 | 4 | 0.0 | 3.0 | 0.00 | 0.04 | 0.04 | 99 | 1019.7 |
| 20260902224957 | 63 | 60 | 0.0 | 2.0 | 0.00 | 0.04 | 0.04 | 99 | 1019.8 |
| 20260902224450 | 63 | 227 | 0.0 | 0.0 | 0.00 | 0.04 | 0.04 | 99 | 1019.8 |
| 20260902223948 | 63 | 205 | 0.0 | 0.0 | 0.00 | 0.04 | 0.04 | 99 | 1019.9 |
| 20260902223442 | 63 | 101 | 1.0 | 3.0 | 0.00 | 0.04 | 0.04 | 99 | 1020.1 |
| 20260902222941 | 63 | 232 | 2.0 | 3.0 | 0.00 | 0.04 | 0.04 | 99 | 1019.7 |
| 20260902222440 | 63 | 131 | 0.0 | 1.0 | 0.00 | 0.04 | 0.04 | 99 | 1020.0 |
| 20260902221935 | 63 | 190 | 0.0 | 3.0 | 0.00 | 0.04 | 0.04 | 99 | 1019.8 |
| 20260902221434 | 64 | 285 | 0.0 | 1.0 | 0.00 | 0.04 | 0.04 | 99 | 1020.1 |
| 20260902220929 | 64 | 214 | 0.0 | 0.0 | 0.00 | 0.04 | 0.04 | 99 | 1020.3 |
| 20260902220423 | 64 | 106 | 2.0 | 3.0 | 0.00 | 0.04 | 0.04 | 99 | 1020.0 |
| 20260902215918 | 64 | 260 | 2.0 | 3.0 | 0.00 | 0.04 | 0.04 | 99 | 1020.3 |
| 20260902215414 | 64 | 222 | 1.0 | 3.0 | 0.00 | 0.04 | 0.04 | 99 | 1020.2 |
| 20260902214910 | 64 | 227 | 0.0 | 0.0 | 0.00 | 0.04 | 0.04 | 99 | 1020.4 |
| 20260902214408 | 64 | 172 | 1.0 | 2.0 | 0.00 | 0.04 | 0.04 | 99 | 1020.3 |
| 20260902213903 | 64 | 150 | 2.0 | 4.0 | 0.00 | 0.04 | 0.04 | 99 | 1020.3 |
| 20260902213400 | 64 | 172 | 3.0 | 4.0 | 0.00 | 0.04 | 0.04 | 99 | 1020.3 |
| 20260902212858 | 64 | 71 | 0.0 | 1.0 | 0.00 | 0.04 | 0.04 | 99 | 1020.3 |
| 20260902212354 | 64 | 237 | 0.0 | 0.0 | 0.00 | 0.04 | 0.04 | 99 | 1020.1 |
| 20260902211850 | 64 | 223 | 0.0 | 1.0 | 0.00 | 0.04 | 0.04 | 99 | 1020.0 |
| 20260902211346 | 64 | 142 | 0.0 | 0.0 | 0.00 | 0.04 | 0.04 | 99 | 1019.8 |
| 20260902210840 | 64 | 229 | 0.0 | 2.0 | 0.00 | 0.04 | 0.04 | 99 | 1019.8 |
| 20260902210335 | 64 | 141 | 1.0 | 3.0 | 0.00 | 0.04 | 0.04 | 99 | 1019.9 |
| 20260902205833 | 64 | 30 | 0.0 | 1.0 | 0.00 | 0.04 | 0.04 | 99 | 1019.8 |
| 20260902205328 | 64 | 177 | 1.0 | 3.0 | 0.00 | 0.04 | 0.04 | 99 | 1020.3 |
| 20260902204824 | 64 | 222 | 0.0 | 2.0 | 0.00 | 0.04 | 0.04 | 99 | 1020.3 |
| 20260902204318 | 64 | 142 | 0.0 | 2.0 | 0.00 | 0.04 | 0.04 | 99 | 1020.2 |
| 20260902203814 | 64 | 202 | 1.0 | 3.0 | 0.00 | 0.04 | 0.04 | 99 | 1020.3 |
| 20260902203309 | 64 | 243 | 1.0 | 6.0 | 0.00 | 0.04 | 0.04 | 99 | 1020.4 |
| 20260902202808 | 64 | 226 | 0.0 | 2.0 | 0.00 | 0.04 | 0.04 | 99 | 1020.6 |
| 20260902202306 | 64 | 270 | 0.0 | 0.0 | 0.07 | 0.04 | 0.04 | 99 | 1020.6 |
| 20260902201801 | 64 | 183 | 0.0 | 2.0 | 0.00 | 0.03 | 0.03 | 99 | 1020.9 |
| 20260902201300 | 64 | 236 | 0.0 | 0.0 | 0.00 | 0.03 | 0.03 | 99 | 1020.8 |
| 20260902200755 | 64 | 137 | 1.0 | 2.0 | 0.00 | 0.03 | 0.03 | 99 | 1020.8 |
| 20260902200251 | 64 | 194 | 0.0 | 1.0 | 0.00 | 0.03 | 0.03 | 99 | 1020.8 |
| 20260902195746 | 64 | 223 | 0.0 | 1.0 | 0.00 | 0.03 | 0.03 | 99 | 1020.9 |
| 20260902195245 | 64 | 241 | 0.0 | 1.0 | 0.00 | 0.03 | 0.03 | 99 | 1020.7 |
| 20260902194740 | 64 | 123 | 3.0 | 4.0 | 0.00 | 0.03 | 0.03 | 99 | 1020.6 |
| 20260902194235 | 64 | 180 | 2.0 | 2.0 | 0.00 | 0.03 | 0.03 | 99 | 1020.7 |
| 20260902193731 | 64 | 202 | 0.0 | 3.0 | 0.00 | 0.03 | 0.03 | 99 | 1020.5 |
| 20260902193226 | 64 | 171 | 2.0 | 4.0 | 0.00 | 0.03 | 0.03 | 99 | 1020.5 |
| 20260902192724 | 64 | 124 | 0.0 | 6.0 | 0.00 | 0.03 | 0.03 | 99 | 1020.5 |
| 20260902192218 | 64 | 159 | 2.0 | 4.0 | 0.00 | 0.03 | 0.03 | 99 | 1020.7 |
| 20260902191713 | 64 | 203 | 0.0 | 2.0 | 0.00 | 0.03 | 0.03 | 99 | 1020.8 |
| 20260902191208 | 64 | 170 | 2.0 | 2.0 | 0.00 | 0.03 | 0.03 | 99 | 1020.7 |
| 20260902190703 | 64 | 179 | 1.0 | 7.0 | 0.00 | 0.03 | 0.03 | 99 | 1020.6 |
| 20260902190158 | 64 | 265 | 0.0 | 1.0 | 0.00 | 0.03 | 0.03 | 99 | 1020.5 |
| 20260902185653 | 64 | 306 | 0.0 | 4.0 | 0.00 | 0.03 | 0.03 | 99 | 1020.6 |
| 20260902185149 | 64 | 164 | 4.0 | 7.0 | 0.00 | 0.03 | 0.03 | 99 | 1020.7 |
| 20260902184649 | 64 | 239 | 0.0 | 1.0 | 0.00 | 0.03 | 0.03 | 99 | 1020.8 |
| 20260902184144 | 64 | 229 | 0.0 | 2.0 | 0.00 | 0.03 | 0.03 | 99 | 1021.2 |
| 20260902183640 | 64 | 170 | 2.0 | 4.0 | 0.00 | 0.03 | 0.03 | 99 | 1021.0 |
| 20260902183137 | 64 | 156 | 5.0 | 7.0 | 0.00 | 0.03 | 0.03 | 99 | 1021.1 |
| 20260902182627 | 63 | 220 | 1.0 | 3.0 | 0.00 | 0.03 | 0.03 | 99 | 1021.0 |
| 20260902182124 | 64 | 240 | 1.0 | 6.0 | 0.00 | 0.03 | 0.03 | 99 | 1021.2 |
| 20260902181620 | 63 | 257 | 0.0 | 3.0 | 0.00 | 0.03 | 0.03 | 99 | 1021.3 |
| 20260902181119 | 64 | 152 | 1.0 | 6.0 | 0.00 | 0.03 | 0.03 | 99 | 1021.5 |
| 20260902180619 | 63 | 196 | 0.0 | 2.0 | 0.00 | 0.03 | 0.03 | 99 | 1021.6 |
| 20260902180116 | 63 | 258 | 0.0 | 3.0 | 0.00 | 0.03 | 0.03 | 99 | 1021.8 |
| 20260902175615 | 63 | 162 | 0.0 | 2.0 | 0.00 | 0.03 | 0.03 | 99 | 1021.6 |
| 20260902175110 | 63 | 193 | 0.0 | 0.0 | 0.00 | 0.03 | 0.03 | 99 | 1022.0 |
| 20260902174606 | 63 | 255 | 2.0 | 2.0 | 0.00 | 0.03 | 0.03 | 99 | 1021.8 |
| 20260902174101 | 63 | 141 | 1.0 | 2.0 | 0.00 | 0.03 | 0.03 | 99 | 1021.8 |
| 20260902173556 | 63 | 191 | 0.0 | 2.0 | 0.00 | 0.03 | 0.03 | 99 | 1021.9 |
| 20260902173051 | 63 | 213 | 0.0 | 2.0 | 0.00 | 0.03 | 0.03 | 99 | 1022.1 |
| 20260902172545 | 63 | 11 | 1.0 | 3.0 | 0.00 | 0.03 | 0.03 | 99 | 1021.9 |
| 20260902172040 | 63 | 194 | 0.0 | 4.0 | 0.00 | 0.03 | 0.03 | 99 | 1022.2 |
| 20260902171536 | 63 | 106 | 0.0 | 1.0 | 0.00 | 0.03 | 0.03 | 99 | 1022.1 |
| 20260902171031 | 63 | 203 | 0.0 | 1.0 | 0.00 | 0.03 | 0.03 | 99 | 1021.9 |
| 20260902170526 | 62 | 228 | 0.0 | 0.0 | 0.00 | 0.03 | 0.03 | 99 | 1021.9 |
| 20260902170022 | 62 | 166 | 1.0 | 2.0 | 0.00 | 0.03 | 0.03 | 99 | 1021.9 |
| 20260902165521 | 62 | 128 | 1.0 | 2.0 | 0.00 | 0.03 | 0.03 | 99 | 1021.9 |
| 20260902165016 | 62 | 216 | 0.0 | 1.0 | 0.00 | 0.03 | 0.03 | 99 | 1021.9 |
| 20260902164511 | 62 | 57 | 0.0 | 1.0 | 0.00 | 0.03 | 0.03 | 99 | 1021.6 |
| 20260902164010 | 62 | 153 | 4.0 | 4.0 | 0.00 | 0.03 | 0.03 | 99 | 1021.5 |
| 20260902163506 | 62 | 171 | 0.0 | 1.0 | 0.00 | 0.03 | 0.03 | 99 | 1021.5 |
| 20260902163004 | 62 | 227 | 0.0 | 2.0 | 0.00 | 0.03 | 0.03 | 99 | 1021.7 |
| 20260902162459 | 62 | 243 | 0.0 | 0.0 | 0.00 | 0.03 | 0.03 | 99 | 1021.8 |
| 20260902161958 | 62 | 157 | 0.0 | 3.0 | 0.00 | 0.03 | 0.03 | 99 | 1022.0 |
| 20260902161453 | 62 | 139 | 0.0 | 2.0 | 0.00 | 0.03 | 0.03 | 99 | 1022.0 |
| 20260902160949 | 62 | 122 | 0.0 | 4.0 | 0.00 | 0.03 | 0.03 | 99 | 1022.1 |
| 20260902160445 | 62 | 243 | 0.0 | 3.0 | 0.05 | 0.03 | 0.03 | 99 | 1022.1 |
| 20260902155942 | 62 | 245 | 0.0 | 1.0 | 0.05 | 0.03 | 0.03 | 99 | 1022.0 |
| 20260902155438 | 62 | 174 | 1.0 | 4.0 | 0.00 | 0.02 | 0.02 | 99 | 1022.0 |
| 20260902154931 | 62 | 225 | 0.0 | 1.0 | 0.00 | 0.02 | 0.02 | 99 | 1022.0 |
| 20260902154427 | 62 | 224 | 0.0 | 1.0 | 0.00 | 0.02 | 0.02 | 99 | 1021.9 |
| 20260902153927 | 62 | 214 | 0.0 | 2.0 | 0.00 | 0.02 | 0.02 | 99 | 1022.0 |
| 20260902153425 | 62 | 350 | 0.0 | 0.0 | 0.00 | 0.02 | 0.02 | 99 | 1021.9 |
| 20260902152921 | 62 | 66 | 0.0 | 2.0 | 0.00 | 0.02 | 0.02 | 99 | 1022.0 |
| 20260902152417 | 62 | 39 | 1.0 | 3.0 | 0.07 | 0.02 | 0.02 | 99 | 1022.2 |
| 20260902151913 | 62 | 216 | 0.0 | 1.0 | 0.07 | 0.02 | 0.02 | 99 | 1022.0 |
| 20260902151408 | 62 | 214 | 0.0 | 1.0 | 0.00 | 0.01 | 0.01 | 99 | 1021.7 |
| 20260902150902 | 62 | 182 | 0.0 | 0.0 | 0.00 | 0.01 | 0.01 | 99 | 1021.9 |
| 20260902150359 | 62 | 185 | 1.0 | 3.0 | 0.00 | 0.01 | 0.01 | 99 | 1021.7 |
| 20260902145858 | 62 | 199 | 1.0 | 4.0 | 0.00 | 0.01 | 0.01 | 99 | 1021.7 |
| 20260902145353 | 62 | 80 | 1.0 | 2.0 | 0.00 | 0.01 | 0.01 | 99 | 1021.7 |
| 20260902144848 | 62 | 212 | 0.0 | 3.0 | 0.00 | 0.01 | 0.01 | 99 | 1021.3 |
| 20260902144345 | 62 | 181 | 1.0 | 1.0 | 0.00 | 0.01 | 0.01 | 99 | 1021.7 |
| 20260902143839 | 62 | 106 | 1.0 | 1.0 | 0.00 | 0.01 | 0.01 | 99 | 1021.5 |
| 20260902143334 | 62 | 189 | 0.0 | 2.0 | 0.00 | 0.01 | 0.01 | 99 | 1021.6 |
| 20260902142830 | 62 | 288 | 1.0 | 2.0 | 0.00 | 0.01 | 0.01 | 99 | 1021.6 |
| 20260902142326 | 62 | 197 | 0.0 | 3.0 | 0.00 | 0.01 | 0.01 | 99 | 1021.7 |
| 20260902141821 | 62 | 220 | 2.0 | 2.0 | 0.00 | 0.01 | 0.01 | 99 | 1021.7 |
| 20260902141316 | 62 | 212 | 0.0 | 2.0 | 0.00 | 0.01 | 0.01 | 99 | 1021.9 |
| 20260902140816 | 62 | 181 | 1.0 | 4.0 | 0.00 | 0.01 | 0.01 | 99 | 1022.0 |
| 20260902140311 | 62 | 189 | 0.0 | 2.0 | 0.05 | 0.01 | 0.01 | 99 | 1022.0 |
| 20260902135810 | 62 | 233 | 0.0 | 3.0 | 0.05 | 0.01 | 0.01 | 99 | 1022.0 |
| 20260902135307 | 62 | 35 | 0.0 | 1.0 | 0.00 | 0.00 | 0.00 | 99 | 1022.1 |
| 20260902134805 | 62 | 82 | 1.0 | 3.0 | 0.00 | 0.00 | 0.00 | 99 | 1021.9 |
| 20260902134301 | 62 | 249 | 0.0 | 0.0 | 0.00 | 0.00 | 0.00 | 99 | 1021.5 |
| 20260902133756 | 62 | 189 | 1.0 | 4.0 | 0.00 | 0.00 | 0.00 | 99 | 1021.6 |
| 20260902133256 | 62 | 197 | 0.0 | 2.0 | 0.00 | 0.00 | 0.00 | 99 | 1021.9 |
| 20260902132751 | 62 | 224 | 2.0 | 4.0 | 0.00 | 0.00 | 0.00 | 99 | 1021.9 |
| 20260902132246 | 62 | 227 | 0.0 | 2.0 | 0.00 | 0.00 | 0.00 | 99 | 1021.5 |
| 20260902131742 | 62 | 220 | 0.0 | 3.0 | 0.00 | 0.00 | 0.00 | 99 | 1021.7 |
| 20260902131238 | 62 | 225 | 0.0 | 1.0 | 0.00 | 0.00 | 0.00 | 99 | 1021.9 |
| 20260902130737 | 62 | 185 | 1.0 | 1.0 | 0.00 | 0.00 | 0.00 | 99 | 1021.8 |
| 20260902130233 | 62 | 134 | 2.0 | 3.0 | 0.00 | 0.00 | 0.00 | 99 | 1022.0 |
| 20260902125728 | 62 | 157 | 0.0 | 3.0 | 0.00 | 0.00 | 0.00 | 99 | 1021.6 |
| 20260902125224 | 62 | 211 | 0.0 | 1.0 | 0.00 | 0.00 | 0.00 | 99 | 1021.7 |
| 20260902124721 | 62 | 188 | 1.0 | 3.0 | 0.00 | 0.00 | 0.00 | 99 | 1021.7 |
| 20260902124215 | 62 | 225 | 0.0 | 2.0 | 0.00 | 0.00 | 0.00 | 99 | 1021.6 |
| 20260902123710 | 62 | 169 | 2.0 | 4.0 | 0.00 | 0.00 | 0.00 | 99 | 1021.5 |
| 20260902123207 | 62 | 84 | 1.0 | 2.0 | 0.00 | 0.00 | 0.00 | 99 | 1021.2 |
| 20260902122700 | 62 | 216 | 0.0 | 0.0 | 0.00 | 0.00 | 0.00 | 99 | 1021.2 |
| 20260902122156 | 62 | 227 | 0.0 | 4.0 | 0.00 | 0.00 | 0.00 | 99 | 1021.3 |
| 20260902121650 | 62 | 214 | 0.0 | 1.0 | 0.00 | 0.00 | 0.00 | 99 | 1021.2 |
| 20260902121145 | 62 | 126 | 1.0 | 2.0 | 0.00 | 0.00 | 0.00 | 99 | 1021.2 |
| 20260902120641 | 62 | 318 | 0.0 | 0.0 | 0.00 | 0.00 | 0.00 | 99 | 1021.2 |
| 20260902120138 | 63 | 198 | 1.0 | 4.0 | 0.00 | 0.00 | 0.00 | 99 | 1021.2 |